Weather Roundup
Issued by NWS Chicago, IL

Home | Current Version | Previous Version | Graphics & Text | Print | Product List | Glossary On
Versions: 1 2 3 4 5 6 7 8 9 10 11 12 13 14 15 16 17 18 19 20 21 22 23 24 25 26 27 28 29 30 31 32 33 34 35 36 37 38 39 40 41 42 43 44 45 46 47 48 49 50
000
NZUS59 KLOT 040800
HRRLOT

CHICAGO AREA WEATHER ROUNDUP
NATIONAL WEATHER SERVICE CHICAGO/ROMEOVILLE IL
300 AM CDT SAT JUL 04 2015

NOTE: "FAIR" INDICATES FEW OR NO CLOUDS BELOW 12,000 FEET WITH NO
SIGNIFICANT WEATHER AND/OR OBSTRUCTIONS TO VISIBILITY.

* THESE STATIONS ARE NOT UNDER NWS QUALITY CONTROL. THEY ALSO MAY NOT
  REPORT WEATHER SUCH AS PRECIPITATION OR FOG.

ILZ005-006-012>014-019>023-040900-
NORTHEAST ILLINOIS

CITY           SKY/WX    TMP DP  RH WIND       PRES   REMARKS
OHARE          CLEAR     61  55  81 CALM      29.95S
MIDWAY         MOCLDY    64  56  75 CALM      29.95S
AURORA         CLEAR     59  55  87 CALM      29.96S FOG
WAUKEGAN       NOT AVBL
DUPAGE AIRPORT CLEAR     59  55  87 CALM      29.96R
WHEELING       CLEAR     59  54  83 CALM      29.97R
NORTHERLY IS     N/A     66  54  65 W6          N/A
$$

WIZ051-052-058>065-066-070>072-040900-
SOUTHEAST WISCONSIN

CITY           SKY/WX    TMP DP  RH WIND       PRES   REMARKS
MILWAUKEE      PTCLDY    63  54  72 SW5       29.94S
KENOSHA*       CLEAR     56  52  86 SW5       29.95S
RACINE*        CLEAR     61  52  72 SW3       29.96S
$$

INZ001>003-010>013-019-020-040900-
NORTHWEST INDIANA

CITY           SKY/WX    TMP DP  RH WIND       PRES   REMARKS
GARY*          NOT AVBL
MICHIGAN CITY* NOT AVBL
RENSSELAER*    NOT AVBL
$$

LMZ740>746-040900-
SOUTHERN LAKE MICHIGAN

STATION/POSITION TIME  SKY/WX   TEMP WIND        PRES    VSBY
                                AIR  DIR/SP/G
                 (UTC)          (F)  (DEG/KT/KT) (MB)    (MI)
HARRISON CRIB    0700            65  310/  3/  4   N/A
BURNHAM HARBOR   0700            65  270/  3/  5   N/A
CALUMET HARBOR   0700            63  240/  1/  2   N/A
BURNS HARBOR     0700            62  200/  3/  4 1014.9
MICHIGAN CITY    0700            58  210/  3/  4   N/A
$$

ABBREVIATIONS USED IN REMARKS
   TC - TEMPERATURE IN CELSIUS
  WCI - WIND CHILL INDEX
   HX - HEAT INDEX
  VSB - VISIBILITY
$$


USA.gov is the U.S. government's official web portal to all federal, state and local government web resources and services.